カタログに戻る

STARLINK-3761

運用中通信VLEO
NORAD 52262·PAYLOAD·🇺🇸 United States

打ち上げ Apr 21, 2022 から Cape Canaveral Space Force Station

Loading…

次のパス (今後24時間)

TLE

最新Source: CelesTrak SupGP

元期: Sep 14, 2026, 21:27 UTC

1 52262C 22041B   26257.89423611 -.00035016  00000+0 -10347-2 0  2572
2 52262  53.1587 333.5797 0001179  85.1118 220.8554 15.34403131    19

AllMySatでSTARLINK-3761をリアルタイム追跡

Download on the App Store